User: anonymous   Login
Location: Antichan
(42.9728°N, 0.6667°E)
Time: 11:10:45
(UTC+00:00)
Language:

SL-08 R/B - Orbit

View from above orbital plane
View from above orbital plane
View from above satellite
View from above satellite

Ground track
Ground track

The orbit data is extracted from the following two-line orbital elements,

1 27437U 02026B   20299.92124124 -.00000005 +00000-0 -20352-4 0  9993
2 27437 082.9510 239.0577 0043420 188.6915 171.3496 13.76575289925116
Epoch (UTC): 25 October 2020 22:06:35
Eccentricity: 0.0043420
inclination: 82.9510°
perigee height: 944 km
apogee height: 1008 km
right ascension of ascending node: 239.0577°
argument of perigee: 188.6915°
revolutions per day: 13.76575289
mean anomaly at epoch: 171.3496°
orbit number at epoch: 92511

The dashed part of the orbit path shows where the satellite is in the earth's shadow,  

DLR